[[{"header":{"parameterUnit":"m.s-1","parameterCategory":1,"la1":30.2991,"la2":30.254,"lo1":-89.0895,"lo2":-89.0444,"dy":0.0017,"dx":0.0017,"nx":28,"ny":28,"refTime":"2024-03-13T09:00:00:Z","depth":0,"parameterNumber":2,"parameterNumberName":"U-component_of_WINDS"},"data":[0,0,0,0,0,0,0,0,0,0,0,0,0,0,0,0,0,0,0,0,0,0,0,0,0,0,0,0,0,0,0,0,0,0,0,0,0,0,0,0,0,0,0,0,0,0,0,0,0,0,0,0,0,0,0,0,0,0,-3.7268,-3.727,0,-3.7368,-3.7369,-3.737,-3.7372,-3.7371,-3.737,-3.7369,-3.7469,-3.7473,-3.7477,0,0,0,0,0,0,0,0,0,0,0,0,0,-3.708,-3.7083,-3.7268,-3.727,-3.7271,-3.7368,-3.7369,-3.737,-3.7372,-3.7371,-3.7369,-3.7368,-3.7468,-3.7472,-3.7477,0,0,0,0,0,0,0,0,0,0,0,0,0,-3.7169,-3.7084,-3.7268,-3.7284,-3.7286,-3.7368,-3.7369,-3.7371,-3.7373,-3.7371,-3.7369,-3.7367,-3.7466,-3.7472,-3.7478,-3.755,0,0,-3.7495,-3.7498,0,0,0,0,0,0,0,0,-3.7163,-3.7175,-3.728,-3.7283,-3.7285,-3.7356,-3.7339,-3.7431,-3.7373,-3.734,-3.7369,-3.7366,-3.7433,-3.7441,-3.7464,-3.7555,-3.7559,-3.7496,-3.7499,-3.7502,-3.7503,0,0,0,0,0,0,0,-3.7157,-3.7171,-3.7308,-3.7282,-3.7285,-3.7285,-3.7296,-3.7357,-3.7395,-3.7342,-3.7343,-3.7355,-3.7434,-3.7458,-3.7466,-3.756,-3.7495,-3.7501,-3.7504,-3.7506,-3.7716,-3.7718,0,0,0,0,0,0,-3.7148,-3.7166,-3.7305,-3.7311,-3.7219,-3.729,-3.7302,-3.7335,-3.7395,-3.7402,-3.7356,-3.7354,-3.7449,-3.7459,-3.747,-3.7558,-3.7501,-3.7507,-3.751,-3.7714,-3.7717,-3.7719,0,0,0,0,0,0,-3.7144,-3.7161,-3.7301,-3.7239,-3.7256,-3.7295,-3.7332,-3.7338,-3.7362,-3.7405,-3.7412,-3.7374,-3.7448,-3.7462,-3.753,-3.7561,-3.7509,-3.7515,-3.7712,-3.7715,-3.7718,-3.7735,0,0,0,0,0,0,-3.7139,-3.7159,-3.7187,-3.7239,-3.726,-3.7359,-3.7334,-3.7341,-3.7372,-3.7371,-3.7424,-3.7431,-3.7448,-3.7522,-3.7536,-3.7568,-3.7519,-3.7709,-3.7713,-3.7717,-3.7732,-3.7739,-3.7744,0,0,0,0,0,-3.7132,-3.7187,-3.7188,-3.7205,-3.7295,-3.7361,-3.7373,-3.7392,-3.7375,-3.7403,-3.7431,-3.7429,-3.7556,-3.7529,-3.7545,-3.7579,-3.7707,-3.7712,-3.7716,-3.7729,-3.7737,-3.7744,0,0,0,0,0,0,-3.7137,-3.7195,-3.7196,-3.727,-3.7311,-3.7361,-3.7397,-3.74,-3.7446,-3.7443,-3.7464,-3.7476,-3.7544,-3.7569,-3.7537,-3.7653,-3.763,-3.7638,-3.7634,-3.7642,-3.7648,-3.7639,-3.7524,0,0,0,0,0,-3.7147,-3.7196,-3.7243,-3.7304,-3.7325,-3.7358,-3.7387,-3.7399,-3.7441,-3.7458,-3.7491,-3.7532,-3.7582,-3.7613,-3.7661,-3.7737,-3.7748,-3.7769,-3.7775,-3.778,-3.7786,-3.7827,-3.7837,-3.7735,-3.7735,-3.7735,0,0,-3.7167,-3.7205,-3.7234,-3.7306,-3.7339,-3.7389,-3.7372,-3.7425,-3.7462,-3.7466,-3.7532,-3.7558,-3.7606,-3.7678,-3.7712,-3.7701,-3.7817,-3.7786,-3.7789,-3.7793,-3.7833,-3.7843,-3.7851,-3.7738,-3.7737,-3.7737,0,0,-3.723,-3.7264,-3.7318,-3.7351,-3.7402,-3.7424,-3.7437,-3.7488,-3.7505,-3.7572,-3.7576,-3.7621,-3.7706,-3.7739,-3.7768,-3.7845,-3.7845,-3.786,-3.7891,-3.7932,-3.794,-3.7947,-3.7973,-3.7982,-3.7867,-3.7867,-3.7867,0,-3.7248,-3.7324,-3.7345,-3.7399,-3.743,-3.7438,-3.7492,-3.7524,-3.7587,-3.7609,-3.7596,-3.7703,-3.7736,-3.7816,-3.7835,-3.7858,-3.7873,-3.7853,-3.7937,-3.7944,-3.7951,-3.7977,-3.7987,-3.7868,-3.7868,-3.7868,-3.7868,0,-3.7344,-3.7396,-3.7434,-3.7495,-3.7531,-3.7585,-3.7615,-3.7649,-3.7658,-3.7681,-3.775,-3.779,-3.7846,-3.7867,-3.7876,-3.7948,-3.794,-3.7932,-3.7909,-3.7962,-3.7986,-3.7996,-3.787,-3.787,-3.7869,-3.7869,0,0,-3.7409,-3.7483,-3.7497,-3.7525,-3.7582,-3.7622,-3.7677,-3.7733,-3.7761,-3.7805,-3.7851,-3.7924,-3.7917,-3.7949,-3.7963,-3.7998,-3.8056,-3.7986,-3.7988,-3.7997,-3.8137,-3.8141,-3.8152,-3.8058,-3.806,-3.8061,-3.8133,0,-3.7476,-3.7573,-3.7595,-3.7679,-3.7727,-3.7736,-3.7784,-3.7824,-3.7848,-3.7892,-3.7919,-3.7969,-3.7958,-3.7977,-3.8013,-3.8041,-3.8084,-3.8037,-3.8099,-3.8101,-3.8085,-3.8165,-3.8169,-3.8235,-3.8143,-3.8144,-3.8145,0,-3.7567,-3.7614,-3.7702,-3.7753,-3.7774,-3.7817,-3.787,-3.7913,-3.7959,-3.7974,-3.8011,-3.8021,-3.8078,-3.8054,-3.8133,-3.81,-3.8127,-3.8146,-3.8149,-3.8153,-3.8125,-3.817,-3.8256,-3.8265,-3.8161,-3.816,-3.8159,0,-3.7604,-3.7689,-3.7753,-3.7777,-3.7839,-3.7868,-3.7896,-3.794,-3.7972,-3.8019,-3.804,-3.8093,-3.8121,-3.8162,-3.8186,-3.8166,-3.8263,-3.8241,-3.8276,-3.8275,-3.8293,-3.8291,-3.8383,-3.8315,-3.8315,-3.8314,-3.8314,0,-3.7675,-3.7728,-3.777,-3.7809,-3.787,-3.7895,-3.7954,-3.7981,-3.8021,-3.8065,-3.8077,-3.8118,-3.8149,-3.8195,-3.8215,-3.8276,-3.829,-3.8303,-3.8307,-3.8301,-3.8299,-3.8317,-3.8312,-3.8317,-3.8316,-3.8316,-3.8315,0,-3.7725,-3.7756,-3.7826,-3.7879,-3.7894,-3.7936,-3.7982,-3.802,-3.8045,-3.8101,-3.8116,-3.8155,-3.8209,-3.8239,-3.8307,-3.832,-3.8389,-3.8392,-3.8373,-3.8375,-3.8407,-3.8403,-3.8512,-3.8527,-3.8451,-3.8451,-3.8452,0,-3.7767,-3.7809,-3.7867,-3.7898,-3.7926,-3.7975,-3.8009,-3.8036,-3.807,-3.8126,-3.8158,-3.8213,-3.8259,-3.8346,-3.838,-3.8433,-3.8435,-3.847,-3.8443,-3.8435,-3.8434,-3.843,-3.8434,-3.8474,-3.8475,-3.8475,-3.8476,0,-3.7839,-3.7852,-3.79,-3.7953,-3.7993,-3.8036,-3.8078,-3.8103,-3.8137,-3.8175,-3.8231,-3.8267,-3.8337,-3.8392,-3.8448,-3.8475,-3.8481,-3.8485,-3.8495,-3.8488,-3.8475,-3.8481,-3.8384,-3.8481,-3.8481,-3.848,-3.848,-3.848,-3.7885,-3.7922,-3.7969,-3.8022,-3.8057,-3.8097,-3.8136,-3.8166,-3.8214,-3.8273,-3.8287,-3.8346,-3.8392,-3.8468,-3.8497,-3.8544,-3.8537,-3.8553,-3.8556,-3.8559,-3.856,-3.8469,-3.8555,-3.8554,-3.8554,-3.8554,-3.8554,0,-3.7956,-3.7987,-3.8035,-3.8095,-3.8137,-3.814,-3.8188,-3.8222,-3.8274,-3.8317,-3.8362,-3.8427,-3.8481,-3.852,-3.8575,-3.8605,-3.8609,-3.8618,-3.8615,-3.8621,-3.8564,-3.8548,-3.8614,-3.8614,-3.8614,-3.8614,-3.8614,-3.8614,-3.7997,-3.806,-3.8079,-3.816,-3.8191,-3.8249,-3.8276,-3.8313,-3.8347,-3.8419,-3.8464,-3.849,-3.8531,-3.8589,-3.8639,-3.8649,-3.8668,-3.8677,-3.8687,-3.8632,-3.8625,-3.8619,-3.8604,-3.8681,-3.8681,-3.874,-3.8741,-3.8741]},{"header":{"parameterUnit":"m.s-1","parameterCategory":1,"la1":30.2991,"la2":30.254,"lo1":-89.0895,"lo2":-89.0444,"dy":0.0017,"dx":0.0017,"nx":28,"ny":28,"refTime":"2024-03-13T09:00:00:Z","depth":0,"parameterNumber":3,"parameterNumberName":"V-component_of_WINDS"},"data":[0,0,0,0,0,0,0,0,0,0,0,0,0,0,0,0,0,0,0,0,0,0,0,0,0,0,0,0,0,0,0,0,0,0,0,0,0,0,0,0,0,0,0,0,0,0,0,0,0,0,0,0,0,0,0,0,0,0,2.5733,2.5734,0,2.581,2.5811,2.5812,2.5831,2.5831,2.583,2.583,2.5907,2.591,2.5912,0,0,0,0,0,0,0,0,0,0,0,0,0,2.5603,2.5605,2.5733,2.5734,2.5735,2.581,2.5811,2.5812,2.5831,2.5831,2.583,2.583,2.5906,2.5909,2.5912,0,0,0,0,0,0,0,0,0,0,0,0,0,2.5668,2.5606,2.5733,2.5753,2.5756,2.581,2.5811,2.5812,2.5831,2.5831,2.583,2.5829,2.5905,2.5909,2.5913,2.5951,0,0,2.5924,2.5926,0,0,0,0,0,0,0,0,2.5664,2.5673,2.5749,2.5752,2.5755,2.581,2.5794,2.5859,2.5832,2.5803,2.583,2.5829,2.5875,2.5882,2.5898,2.5954,2.5958,2.5925,2.5927,2.5929,2.593,0,0,0,0,0,0,0,2.566,2.5669,2.5763,2.5751,2.5754,2.5759,2.5768,2.5806,2.5842,2.5805,2.5807,2.5816,2.5877,2.5894,2.59,2.5959,2.5925,2.5928,2.593,2.5932,2.6054,2.6055,0,0,0,0,0,0,2.5652,2.5665,2.5761,2.5766,2.5707,2.5762,2.5772,2.5793,2.5842,2.5849,2.5816,2.5816,2.5888,2.5895,2.5902,2.5952,2.5929,2.5932,2.5934,2.6053,2.6054,2.6055,0,0,0,0,0,0,2.5649,2.566,2.5758,2.5716,2.5729,2.5765,2.579,2.5795,2.5812,2.585,2.5857,2.5827,2.5888,2.5897,2.594,2.5955,2.5934,2.5937,2.6052,2.6053,2.6055,2.6051,0,0,0,0,0,0,2.5645,2.5659,2.5673,2.5716,2.5731,2.5793,2.579,2.5797,2.5819,2.582,2.5862,2.5868,2.5888,2.5934,2.5943,2.596,2.594,2.6051,2.6053,2.6054,2.605,2.6052,2.6054,0,0,0,0,0,2.564,2.5668,2.5674,2.5685,2.575,2.5794,2.5803,2.5825,2.582,2.5835,2.586,2.5867,2.5952,2.5938,2.5949,2.5967,2.605,2.6052,2.6054,2.6049,2.6052,2.6054,0,0,0,0,0,0,2.5624,2.5674,2.5681,2.5723,2.5754,2.5797,2.5817,2.5826,2.5859,2.5858,2.5884,2.5894,2.5935,2.5955,2.5938,2.6008,2.6001,2.6005,2.5993,2.5996,2.5998,2.5993,2.5943,0,0,0,0,0,2.5626,2.5657,2.5699,2.5732,2.5748,2.578,2.58,2.5815,2.5848,2.5861,2.5889,2.592,2.5955,2.5976,2.601,2.6053,2.6064,2.6071,2.6073,2.6075,2.6079,2.6106,2.6111,2.6063,2.6063,2.6063,0,0,2.5628,2.566,2.5678,2.573,2.5756,2.5789,2.5791,2.5825,2.585,2.5866,2.5908,2.593,2.5967,2.6011,2.6032,2.6029,2.6094,2.6078,2.6079,2.6082,2.6109,2.6113,2.6117,2.6064,2.6064,2.6064,0,0,2.5652,2.5677,2.571,2.5736,2.5777,2.5798,2.5806,2.5848,2.5864,2.5907,2.5921,2.5951,2.6008,2.6036,2.6057,2.6094,2.6102,2.6104,2.6115,2.6142,2.6145,2.6149,2.6164,2.6169,2.6107,2.6107,2.6107,0,2.565,2.5701,2.5725,2.576,2.5783,2.5801,2.5834,2.5859,2.5907,2.5923,2.592,2.5995,2.6021,2.6073,2.6083,2.6099,2.611,2.6099,2.6143,2.6147,2.615,2.6165,2.6171,2.6108,2.6108,2.6107,2.6107,0,2.5698,2.5733,2.5755,2.5803,2.5829,2.5862,2.5893,2.5916,2.5929,2.5952,2.5997,2.603,2.6071,2.6085,2.6097,2.6139,2.6137,2.6138,2.6131,2.6155,2.6169,2.6175,2.6108,2.6108,2.6108,2.6108,0,0,2.5711,2.5775,2.5783,2.5806,2.5853,2.5881,2.5917,2.5959,2.5979,2.6013,2.6044,2.6094,2.6097,2.6121,2.6137,2.616,2.6191,2.6159,2.616,2.6165,2.6242,2.6242,2.6248,2.6196,2.6198,2.6198,2.624,0,2.5741,2.5806,2.5831,2.5884,2.5918,2.5937,2.5968,2.6001,2.6024,2.6056,2.6081,2.6117,2.6116,2.6131,2.6155,2.6182,2.6207,2.6179,2.6227,2.6229,2.6219,2.6256,2.6255,2.6292,2.6245,2.6246,2.6247,0,2.5784,2.5821,2.5878,2.5924,2.5939,2.5967,2.6009,2.604,2.6078,2.6093,2.6122,2.6137,2.6177,2.6168,2.6224,2.6205,2.6226,2.6242,2.6244,2.625,2.624,2.6264,2.6304,2.6311,2.6256,2.6255,2.6255,0,2.5791,2.5854,2.5897,2.5916,2.597,2.599,2.6013,2.6051,2.6076,2.6113,2.613,2.617,2.6193,2.6224,2.6251,2.6241,2.6305,2.6297,2.632,2.6319,2.6332,2.6331,2.6378,2.6344,2.6344,2.6344,2.6343,0,2.5822,2.5857,2.5901,2.5928,2.5968,2.5997,2.6036,2.606,2.6095,2.6127,2.6145,2.6175,2.6208,2.6243,2.6264,2.6308,2.6317,2.6332,2.6337,2.6331,2.6329,2.6346,2.6344,2.6345,2.6345,2.6344,2.6344,0,2.5836,2.5867,2.5916,2.5964,2.5977,2.6005,2.6047,2.6074,2.6098,2.614,2.6151,2.6189,2.6231,2.6261,2.6314,2.6329,2.6378,2.6382,2.6365,2.6368,2.6389,2.6387,2.6449,2.646,2.6417,2.6417,2.6417,0,2.5855,2.5882,2.5935,2.5958,2.5982,2.602,2.6046,2.6076,2.6103,2.6151,2.6173,2.6217,2.6253,2.632,2.6353,2.6395,2.6401,2.642,2.6408,2.6402,2.6404,2.6403,2.6407,2.6422,2.6422,2.6423,2.6423,0,2.5885,2.59,2.5937,2.5981,2.6012,2.6048,2.6084,2.6102,2.6138,2.6168,2.6212,2.6241,2.6298,2.6342,2.6388,2.6412,2.6424,2.6427,2.6435,2.6429,2.6419,2.6427,2.6372,2.6425,2.6425,2.6425,2.6425,2.6425,2.5903,2.593,2.5972,2.6014,2.6044,2.6078,2.6107,2.6137,2.6174,2.6224,2.6239,2.6286,2.6326,2.639,2.6415,2.6453,2.6452,2.6462,2.6465,2.6468,2.6469,2.6412,2.6461,2.6461,2.6461,2.6461,2.6461,0,2.5936,2.5965,2.6003,2.6054,2.6088,2.6098,2.6139,2.6166,2.6207,2.6245,2.6282,2.6334,2.6378,2.6415,2.6461,2.6484,2.6491,2.6495,2.6494,2.6501,2.6466,2.6456,2.6489,2.6489,2.6489,2.6489,2.6489,2.6489,2.5958,2.6004,2.6024,2.6087,2.6116,2.6163,2.6186,2.6218,2.6248,2.6307,2.6344,2.6368,2.6407,2.6456,2.6497,2.6507,2.6524,2.6527,2.6538,2.6506,2.6502,2.6499,2.649,2.653,2.653,2.657,2.657,2.6571]}]]